[[{"header":{"parameterUnit":"m.s-1","parameterCategory":1,"la1":30.2991,"la2":30.254,"lo1":-89.0895,"lo2":-89.0444,"dy":0.0017,"dx":0.0017,"nx":28,"ny":28,"refTime":"2024-08-27T09:00:00:Z","depth":0,"parameterNumber":2,"parameterNumberName":"U-component_of_WINDS"},"data":[0,0,0,0,0,0,0,0,0,0,0,0,0,0,0,0,0,0,0,0,0,0,0,0,0,0,0,0,0,0,0,0,0,0,0,0,0,0,0,0,0,0,0,0,0,0,0,0,0,0,0,0,0,0,0,0,0,0,-1.1595,-1.1597,0,-1.174,-1.1742,-1.1743,-1.1822,-1.1822,-1.1822,-1.1822,-1.197,-1.1974,-1.1978,0,0,0,0,0,0,0,0,0,0,0,0,0,-1.1386,-1.1389,-1.1595,-1.1597,-1.1599,-1.174,-1.1742,-1.1744,-1.1822,-1.1822,-1.1822,-1.1822,-1.1969,-1.1973,-1.1978,0,0,0,0,0,0,0,0,0,0,0,0,0,-1.1498,-1.1391,-1.1595,-1.1655,-1.1661,-1.1739,-1.1742,-1.1744,-1.1821,-1.1822,-1.1822,-1.1822,-1.1968,-1.1973,-1.1979,-1.2008,0,0,-1.1996,-1.1998,0,0,0,0,0,0,0,0,-1.1492,-1.1506,-1.1644,-1.1651,-1.1658,-1.1763,-1.1722,-1.1833,-1.1821,-1.1761,-1.1822,-1.1822,-1.1901,-1.1912,-1.1939,-1.2015,-1.2021,-1.1996,-1.2,-1.2002,-1.2004,0,0,0,0,0,0,0,-1.1484,-1.15,-1.1652,-1.1646,-1.1655,-1.1674,-1.169,-1.1744,-1.1828,-1.1766,-1.1772,-1.1788,-1.1905,-1.1933,-1.1943,-1.2024,-1.1996,-1.2001,-1.2005,-1.2007,-1.2132,-1.2132,0,0,0,0,0,0,-1.1467,-1.1493,-1.1648,-1.1657,-1.1574,-1.1678,-1.1696,-1.1729,-1.1827,-1.1842,-1.1788,-1.1791,-1.1923,-1.1936,-1.1948,-1.199,-1.2002,-1.2008,-1.2011,-1.2132,-1.2132,-1.2132,0,0,0,0,0,0,-1.1462,-1.148,-1.1642,-1.1577,-1.1599,-1.1681,-1.1718,-1.1732,-1.176,-1.1844,-1.1859,-1.1801,-1.1924,-1.194,-1.1993,-1.1996,-1.201,-1.2015,-1.2132,-1.2132,-1.2132,-1.2073,0,0,0,0,0,0,-1.1455,-1.1477,-1.149,-1.1576,-1.1602,-1.1684,-1.1718,-1.1734,-1.177,-1.1776,-1.186,-1.1874,-1.1925,-1.1984,-1.1998,-1.2004,-1.202,-1.2132,-1.2132,-1.2132,-1.2075,-1.2071,-1.2067,0,0,0,0,0,-1.1448,-1.1467,-1.149,-1.1508,-1.1619,-1.1684,-1.1699,-1.1757,-1.1769,-1.1782,-1.1836,-1.1872,-1.1993,-1.1989,-1.2006,-1.2013,-1.2132,-1.2132,-1.2132,-1.2077,-1.2071,-1.2067,0,0,0,0,0,0,-1.1378,-1.1479,-1.1506,-1.1554,-1.161,-1.1697,-1.1715,-1.175,-1.1803,-1.1806,-1.1877,-1.1895,-1.1941,-1.1982,-1.1975,-1.2047,-1.2067,-1.207,-1.2019,-1.2014,-1.2011,-1.2,-1.2024,0,0,0,0,0,-1.1368,-1.1413,-1.1499,-1.1533,-1.156,-1.1632,-1.1663,-1.1703,-1.1764,-1.1788,-1.1845,-1.1903,-1.1954,-1.1987,-1.2038,-1.2081,-1.2101,-1.2094,-1.2091,-1.2087,-1.2089,-1.2115,-1.2114,-1.2131,-1.2131,-1.2131,0,0,-1.1349,-1.141,-1.1433,-1.152,-1.1569,-1.1613,-1.1652,-1.1697,-1.1731,-1.1795,-1.1848,-1.1892,-1.1961,-1.2009,-1.2033,-1.2045,-1.2089,-1.2087,-1.2083,-1.2088,-1.2115,-1.2113,-1.2112,-1.2131,-1.2131,-1.2131,0,0,-1.1336,-1.1386,-1.142,-1.1468,-1.154,-1.1588,-1.1596,-1.1678,-1.171,-1.1765,-1.1814,-1.1855,-1.1941,-1.1989,-1.2024,-1.2029,-1.2064,-1.2044,-1.2024,-1.2049,-1.2047,-1.2046,-1.2049,-1.2049,-1.2045,-1.2045,-1.2045,0,-1.1303,-1.1372,-1.1433,-1.1476,-1.1513,-1.1573,-1.1608,-1.1651,-1.1736,-1.176,-1.1772,-1.1883,-1.1933,-1.1993,-1.1994,-1.2021,-1.2033,-1.2035,-1.2042,-1.2042,-1.2042,-1.2045,-1.2046,-1.2042,-1.2043,-1.2043,-1.2043,0,-1.1327,-1.1374,-1.1393,-1.1474,-1.1513,-1.1552,-1.1619,-1.1652,-1.1688,-1.1735,-1.179,-1.1852,-1.1918,-1.1935,-1.1971,-1.2,-1.2006,-1.2029,-1.205,-1.2037,-1.2041,-1.2042,-1.2038,-1.2039,-1.204,-1.2041,0,0,-1.1275,-1.139,-1.1396,-1.1434,-1.1518,-1.1555,-1.1597,-1.1661,-1.1687,-1.1744,-1.1781,-1.1853,-1.1875,-1.1915,-1.1957,-1.1978,-1.1979,-1.1999,-1.2002,-1.1994,-1.2015,-1.1998,-1.1998,-1.2002,-1.2003,-1.2003,-1.201,0,-1.1275,-1.1352,-1.1409,-1.1465,-1.1509,-1.1566,-1.1602,-1.1658,-1.1702,-1.1747,-1.1796,-1.1846,-1.1872,-1.1896,-1.192,-1.1973,-1.1984,-1.1974,-1.2038,-1.2039,-1.2019,-1.2,-1.1982,-1.1985,-1.2012,-1.2012,-1.2012,0,-1.1285,-1.134,-1.14,-1.148,-1.1501,-1.1532,-1.1596,-1.1637,-1.1701,-1.1732,-1.1777,-1.182,-1.1866,-1.1882,-1.1947,-1.1939,-1.1968,-1.1998,-1.2,-1.2009,-1.2025,-1.2009,-1.1988,-1.1988,-1.2015,-1.2015,-1.2015,0,-1.1242,-1.1331,-1.1379,-1.1409,-1.1503,-1.1524,-1.1564,-1.1628,-1.1663,-1.1719,-1.1742,-1.1802,-1.1835,-1.1881,-1.1939,-1.1945,-1.1998,-1.2019,-1.2026,-1.2024,-1.2035,-1.2034,-1.2019,-1.2052,-1.2052,-1.2052,-1.2052,0,-1.1236,-1.1271,-1.1361,-1.139,-1.143,-1.1495,-1.1533,-1.1578,-1.1635,-1.1674,-1.1727,-1.1762,-1.1837,-1.1881,-1.1927,-1.1974,-1.1989,-1.2015,-1.2027,-1.2011,-1.2008,-1.2032,-1.2033,-1.2052,-1.2052,-1.2052,-1.2052,0,-1.1195,-1.1257,-1.1312,-1.1397,-1.1419,-1.1445,-1.1517,-1.1548,-1.1595,-1.1644,-1.1659,-1.1734,-1.1789,-1.1851,-1.1927,-1.1958,-1.2002,-1.2019,-1.1981,-1.1988,-1.1991,-1.199,-1.1992,-1.1996,-1.2025,-1.2025,-1.2025,0,-1.1188,-1.1216,-1.1303,-1.1333,-1.1372,-1.142,-1.1456,-1.152,-1.1556,-1.1631,-1.1652,-1.1712,-1.1763,-1.1848,-1.1909,-1.1968,-1.1987,-1.1983,-1.1996,-1.1979,-1.1988,-1.1986,-1.1989,-1.198,-1.1979,-1.1979,-1.1978,0,-1.1169,-1.1198,-1.1248,-1.1309,-1.135,-1.1401,-1.1454,-1.1476,-1.1551,-1.1588,-1.1645,-1.1685,-1.1762,-1.1821,-1.1887,-1.1928,-1.1966,-1.1974,-1.1979,-1.1963,-1.194,-1.1953,-1.1972,-1.1974,-1.1974,-1.1974,-1.1975,-1.1975,-1.1145,-1.1173,-1.1239,-1.1293,-1.1339,-1.1388,-1.1421,-1.1472,-1.1521,-1.159,-1.1625,-1.1681,-1.1745,-1.1838,-1.1878,-1.1923,-1.1936,-1.1942,-1.1944,-1.1945,-1.1941,-1.1931,-1.1936,-1.1936,-1.1936,-1.1936,-1.1936,0,-1.1129,-1.1174,-1.1223,-1.1296,-1.1339,-1.137,-1.143,-1.1464,-1.1513,-1.1569,-1.1618,-1.1684,-1.1741,-1.1806,-1.1868,-1.1891,-1.191,-1.1905,-1.1905,-1.1914,-1.1926,-1.1916,-1.1889,-1.1889,-1.1889,-1.1889,-1.1889,-1.1889,-1.1126,-1.1175,-1.1211,-1.1284,-1.1329,-1.1385,-1.1417,-1.1462,-1.1507,-1.1578,-1.1626,-1.1668,-1.1728,-1.1794,-1.1847,-1.1865,-1.1886,-1.1876,-1.1898,-1.1909,-1.1913,-1.1917,-1.1908,-1.1879,-1.1879,-1.1883,-1.1883,-1.1883]},{"header":{"parameterUnit":"m.s-1","parameterCategory":1,"la1":30.2991,"la2":30.254,"lo1":-89.0895,"lo2":-89.0444,"dy":0.0017,"dx":0.0017,"nx":28,"ny":28,"refTime":"2024-08-27T09:00:00:Z","depth":0,"parameterNumber":3,"parameterNumberName":"V-component_of_WINDS"},"data":[0,0,0,0,0,0,0,0,0,0,0,0,0,0,0,0,0,0,0,0,0,0,0,0,0,0,0,0,0,0,0,0,0,0,0,0,0,0,0,0,0,0,0,0,0,0,0,0,0,0,0,0,0,0,0,0,0,0,-2.6092,-2.6092,0,-2.6004,-2.6003,-2.6002,-2.5917,-2.5916,-2.5915,-2.5914,-2.5819,-2.5817,-2.5816,0,0,0,0,0,0,0,0,0,0,0,0,0,-2.6185,-2.6184,-2.6093,-2.6091,-2.609,-2.6004,-2.6003,-2.6002,-2.5917,-2.5916,-2.5914,-2.5913,-2.5819,-2.5817,-2.5816,0,0,0,0,0,0,0,0,0,0,0,0,0,-2.6126,-2.6184,-2.6093,-2.6038,-2.6032,-2.6004,-2.6003,-2.6001,-2.5917,-2.5916,-2.5914,-2.5913,-2.582,-2.5818,-2.5815,-2.5834,0,0,-2.5808,-2.5807,0,0,0,0,0,0,0,0,-2.6129,-2.6122,-2.6047,-2.6042,-2.6035,-2.597,-2.6001,-2.5945,-2.5918,-2.5961,-2.5914,-2.5912,-2.587,-2.5864,-2.585,-2.5829,-2.5825,-2.5808,-2.5807,-2.5806,-2.5805,0,0,0,0,0,0,0,-2.6133,-2.6126,-2.6057,-2.6046,-2.6039,-2.6017,-2.6006,-2.599,-2.5925,-2.5957,-2.595,-2.5941,-2.5866,-2.5853,-2.5847,-2.5824,-2.5808,-2.5806,-2.5805,-2.5804,-2.5815,-2.5816,0,0,0,0,0,0,-2.6146,-2.613,-2.606,-2.6055,-2.6079,-2.6016,-2.6005,-2.5992,-2.5925,-2.5914,-2.5943,-2.5938,-2.5857,-2.585,-2.5844,-2.5862,-2.5806,-2.5804,-2.5802,-2.5813,-2.5815,-2.5817,0,0,0,0,0,0,-2.6149,-2.6141,-2.6064,-2.609,-2.6079,-2.6016,-2.6003,-2.5991,-2.5978,-2.5915,-2.5903,-2.5941,-2.5856,-2.5847,-2.5837,-2.5858,-2.5803,-2.5801,-2.5811,-2.5814,-2.5816,-2.5899,0,0,0,0,0,0,-2.6152,-2.6142,-2.6149,-2.6091,-2.6078,-2.606,-2.6004,-2.5991,-2.5975,-2.5967,-2.591,-2.5899,-2.5854,-2.5841,-2.5835,-2.5854,-2.5799,-2.5809,-2.5812,-2.5815,-2.5894,-2.5904,-2.5912,0,0,0,0,0,-2.6155,-2.6175,-2.615,-2.6142,-2.6085,-2.6061,-2.6054,-2.6003,-2.5977,-2.5983,-2.5943,-2.5901,-2.5856,-2.5841,-2.5833,-2.5851,-2.5807,-2.5811,-2.5815,-2.589,-2.5902,-2.5912,0,0,0,0,0,0,-2.6235,-2.6166,-2.6138,-2.6139,-2.6107,-2.6047,-2.6053,-2.6017,-2.599,-2.5984,-2.5921,-2.5909,-2.5907,-2.5877,-2.5862,-2.5866,-2.5826,-2.5829,-2.5886,-2.5896,-2.5905,-2.5913,-2.5797,0,0,0,0,0,-2.6253,-2.624,-2.618,-2.6187,-2.6173,-2.6116,-2.6104,-2.6068,-2.6031,-2.6017,-2.5975,-2.5941,-2.5919,-2.5906,-2.5882,-2.5889,-2.5876,-2.5897,-2.5907,-2.5914,-2.5917,-2.592,-2.593,-2.5829,-2.5829,-2.5829,0,0,-2.6289,-2.625,-2.6245,-2.6202,-2.6173,-2.6161,-2.6105,-2.6094,-2.6084,-2.6014,-2.6004,-2.5973,-2.5929,-2.5929,-2.5926,-2.5904,-2.5942,-2.5919,-2.5926,-2.5924,-2.5925,-2.5935,-2.5943,-2.5832,-2.5831,-2.5831,0,0,-2.6349,-2.6318,-2.6322,-2.6294,-2.6252,-2.6214,-2.6215,-2.6161,-2.6138,-2.6127,-2.6075,-2.6062,-2.6025,-2.5997,-2.5978,-2.6031,-2.5991,-2.6024,-2.6072,-2.6076,-2.6084,-2.609,-2.611,-2.6118,-2.6027,-2.6028,-2.6028,0,-2.64,-2.638,-2.6327,-2.6321,-2.6303,-2.6242,-2.6245,-2.622,-2.6171,-2.616,-2.6137,-2.6092,-2.6058,-2.6051,-2.6064,-2.605,-2.6049,-2.6031,-2.6087,-2.6093,-2.6099,-2.6117,-2.6125,-2.6032,-2.6032,-2.6031,-2.6031,0,-2.6445,-2.6433,-2.644,-2.6397,-2.6381,-2.6379,-2.6325,-2.6314,-2.628,-2.6245,-2.6235,-2.6193,-2.6161,-2.6156,-2.6121,-2.6144,-2.6133,-2.6099,-2.6057,-2.6114,-2.613,-2.6136,-2.6038,-2.6037,-2.6035,-2.6034,0,0,-2.6552,-2.6482,-2.6486,-2.6466,-2.6415,-2.6404,-2.6399,-2.637,-2.6363,-2.6331,-2.6326,-2.6298,-2.6267,-2.6246,-2.6207,-2.6211,-2.6257,-2.6176,-2.6174,-2.6194,-2.6281,-2.6307,-2.6316,-2.623,-2.6231,-2.6232,-2.6285,0,-2.6605,-2.6595,-2.6548,-2.6551,-2.6539,-2.6481,-2.6477,-2.6446,-2.6413,-2.6398,-2.636,-2.6343,-2.6303,-2.629,-2.629,-2.6251,-2.6273,-2.6246,-2.6224,-2.6224,-2.6239,-2.6324,-2.6352,-2.6404,-2.6291,-2.6292,-2.6292,0,-2.6665,-2.664,-2.6643,-2.6595,-2.6588,-2.6585,-2.6555,-2.6541,-2.6504,-2.648,-2.6458,-2.6416,-2.6407,-2.6369,-2.6356,-2.6339,-2.6327,-2.6307,-2.6308,-2.6304,-2.6263,-2.6325,-2.6419,-2.6427,-2.6301,-2.6301,-2.63,0,-2.6745,-2.6712,-2.671,-2.6695,-2.6637,-2.6637,-2.6613,-2.6575,-2.656,-2.6534,-2.6524,-2.6496,-2.6481,-2.646,-2.6411,-2.6387,-2.6405,-2.6362,-2.6385,-2.6386,-2.6392,-2.6392,-2.6487,-2.6383,-2.6382,-2.6382,-2.6382,0,-2.6809,-2.6814,-2.6745,-2.6744,-2.6748,-2.6693,-2.6698,-2.6668,-2.6635,-2.6626,-2.6573,-2.6566,-2.6502,-2.6488,-2.645,-2.6446,-2.6439,-2.6419,-2.6409,-2.6425,-2.6428,-2.6417,-2.6413,-2.6384,-2.6384,-2.6383,-2.6383,0,-2.6899,-2.6853,-2.6848,-2.6795,-2.6782,-2.6787,-2.6741,-2.6738,-2.6703,-2.6693,-2.6687,-2.6632,-2.6613,-2.6562,-2.6529,-2.6503,-2.6511,-2.6491,-2.6524,-2.6518,-2.6545,-2.6543,-2.6636,-2.6646,-2.6535,-2.6536,-2.6537,0,-2.6944,-2.6946,-2.6895,-2.6886,-2.6865,-2.6852,-2.6838,-2.6785,-2.6772,-2.6731,-2.6733,-2.671,-2.6689,-2.666,-2.6616,-2.6591,-2.6571,-2.6605,-2.6567,-2.6583,-2.6573,-2.6574,-2.6575,-2.6614,-2.6616,-2.6617,-2.6618,0,-2.7028,-2.7006,-2.6989,-2.6965,-2.695,-2.6928,-2.6902,-2.6898,-2.6838,-2.6826,-2.6807,-2.6791,-2.6759,-2.6737,-2.6705,-2.6678,-2.6639,-2.6631,-2.6635,-2.6651,-2.6671,-2.6662,-2.6549,-2.6629,-2.6628,-2.6627,-2.6626,-2.6626,-2.7098,-2.7098,-2.7063,-2.7046,-2.7021,-2.6999,-2.6994,-2.696,-2.6943,-2.6914,-2.6883,-2.6868,-2.6831,-2.6785,-2.6762,-2.6748,-2.6727,-2.6733,-2.6735,-2.6737,-2.6745,-2.6673,-2.6742,-2.6742,-2.6741,-2.6741,-2.6741,0,-2.7181,-2.7156,-2.7141,-2.7108,-2.7095,-2.706,-2.7031,-2.7022,-2.7009,-2.698,-2.6961,-2.6939,-2.6918,-2.6873,-2.6848,-2.6846,-2.6827,-2.6841,-2.6841,-2.6836,-2.6765,-2.6764,-2.6857,-2.6857,-2.6857,-2.6857,-2.6857,-2.6857,-2.7223,-2.7222,-2.7196,-2.7183,-2.7157,-2.7144,-2.713,-2.7109,-2.7086,-2.7065,-2.7048,-2.702,-2.6984,-2.6956,-2.6935,-2.6922,-2.6916,-2.6936,-2.6918,-2.6852,-2.6841,-2.683,-2.683,-2.6935,-2.6935,-2.699,-2.6991,-2.6991]}]]